C/2000 W1 (Utsunomiya-Jones) 

T 2000 Dec. 26.55927 TT                                 Nakano

q   0.3211812            (2000.0)            P               Q

                   Peri.   51.50891     +0.74897195     -0.65956334

                   Node    10.76598     -0.66259808     -0.74584966

e   1.0            Incl.  160.16544     +0.00219033     -0.09319062

From 163 observations 2000 Nov. 26-2001 Jan. 23.

Residuals in seconds of arc 

2000/                     001202 860  0.6-  0.1+    001209 300  0.5-  0.2-  

001126 474 (0.1-  3.9-)   001202 860  1.1-  0.2+    001209 300  1.0-  0.1+  

001126 474 (1.4-  3.6-)   001202 860  0.8-  0.0     001209 351  1.3-  1.5+  

001126 474  0.8-  1.8-    001202 860  0.4-  0.2-    001209 859  1.0+  1.3+  

001126 474  1.0-  1.5-    001202 860  0.2-  0.1-    001209 859  1.6+  1.2+  

001126 474  1.0-  0.1-    001204 428  1.2-  1.2+    001209 859  1.6+  1.0+  

001126 474  0.2-  0.8-    001205 467 (2.3+  2.1-)   001211 372  0.5+  0.8+  

001126 474  0.2-  0.8-    001205 467  1.4+  1.8-    001212 913  0.2+  1.5-  

001126 474  0.3-  0.4-    001205 428  1.6-  0.2+    001212 913  0.1+  1.5-  

001128 913  1.4+  0.8-    001205 428  1.5-  1.6+    001212 467  1.8+  1.4-  

001128 913  0.8+  1.5-    001206 349 (3.0-  4.1-)   001212 467  0.2+  0.8-  

001128 428  0.6+  1.0+    001206 349  2.0-  1.2-    001212 372  0.5+  0.3+  

001128 428  0.7+  0.9+    001206 467 (1.3+  2.4-)   001212 467  2.1+  1.9-  

001128 428  0.2+  0.5+    001206 349 (1.6-  4.5-)   001212 413  1.7-  1.0-  

001129 467  1.9+  0.4-    001206 349  2.0-  1.5-    001212 413  1.7-  0.6-  

001129 467  1.7+  1.2-    001206 349 (3.6-  1.6-)   001212 413  1.9-  0.7-  

001129 467  1.0+  2.0-    001206 467  0.7+  0.9-    001212 413  1.9-  0.3-  

001129 467  1.3+  0.7-    001206 467  1.2+  0.9-    001213 341  0.0   0.5+  

001129 467 (2.0+  2.3-)   001207 351 (6.9+  2.3+)   001213 341  0.0   1.0+  

001129 428  0.2-  0.3-    001207 351 (5.8+  2.1+)   001213 341  0.2+  0.7+  

001129 428  0.1+  0.1+    001207 860  0.5-  0.7-    001214 372  0.3+  1.2+  

001129 428  0.1+  0.4+    001207 860  0.2-  0.7-    001215 341  2.1+  0.8+  

001129 428  0.2-  0.2-    001207 860  0.3+  1.0-    001215 341  1.7+  0.7+  

001129 428  0.1+  0.1-    001207 860  0.2+  0.5-    001215 402  0.3+  0.1+  

001129 428  0.3-  0.7-    001207 860  0.1+  1.2-    001215 351  0.2-  0.4-  

001129 474  0.0   0.5+    001207 860  0.1-  0.6-    001215 402  0.4+  0.5-  

001129 474  0.1+  0.5+    001207 860  0.7-  0.3-    001215 402  0.3+  0.1-  

001129 474  0.9-  1.2+    001207 860  1.7-  1.3+    001215 372  0.9+  0.9+  

001129 474  0.8-  1.1+    001207 860  0.5-  0.8-    001215 351  0.1+  0.0   

001129 474  0.0   0.7+    001207 860  0.2-  0.0     001215 372  0.3-  0.1+  

001129 474  0.4-  1.5+    001207 860  0.3-  1.0-    001215 372  0.1+  0.1+  

001129 474  0.0   0.9+    001207 860  0.4-  0.7-    001216 349  0.1+  0.3+  

001129 322  0.9+  0.6-    001208 908  0.2-  0.6+    001216 349  0.6-  0.7-  

001129 322  0.7+  0.5-    001208 908  1.8+  0.8+    001216 349  0.1+  0.9+  

001129 322  0.9+  0.7-    001208 908  1.0+  0.3+    001216 349  0.3+  0.2+  

001129 322  0.7+  0.6-    001208 351 (2.2+  0.7+)   001218 467 (3.9+  3.7-) 

001129 474  0.5-  1.2+    001208 908  1.6+  1.1+    001218 467 (4.1+  3.7-) 

001129 474  0.1+  0.6+    001208 402  0.0   0.4+    001218 467 (4.4+  3.4-) 

001129 474  0.5-  1.2+    001208 467 (1.5+  2.2-)   001218 467 (7.0+  3.2-) 

001129 474  0.6-  0.5+    001208 351  0.4+  0.5-    001222 900  1.7+  0.4+  

001129 474  0.4-  1.1+    001208 402  0.4-  0.3+    001222 402  2.1+  0.7+  

001129 474  0.6-  0.5+    001208 402  0.7-  1.2+    001222 900  0.9+  0.5+  

001129 474  0.7-  0.5+    001208 300  1.3-  0.6+    001222 402 (2.4+  0.7+) 

001130 467  1.2+  0.1-    001208 372 (0.5+  3.4+)   001222 402  2.0+  0.8+  

001130 467  1.1+  1.2-    001208 300  1.9-  0.4+    001222 900  0.6+  0.2-  

001130 467  0.2+  0.8-    001208 300  1.0-  0.1+    2001/                   

001130 467  0.8+  0.3-    001208 300  1.1-  0.2+    010111 349  0.7-  0.9-  

001130 428  0.2-  0.6+    001208 372 (0.2+  3.7+)   010111 349 (6.4-  0.1-) 

001130 428  0.3-  0.6+    001208 467  2.0+  1.5-    010111 349 (5.8-  1.8-) 

001130 428  0.2-  0.7+    001208 467 (2.3+  0.9-)   010113 349  0.8+  1.1+  

001130 428  0.4-  1.0+    001208 859  1.8+  0.4+    010113 349 (1.3-  3.6+) 

001130 428  0.5-  0.5+    001208 859  1.8+  1.3-    010113 349 (3.1-  2.0-) 

001130 474  0.0   0.4+    001208 859  1.4+  0.4+    010113 349 (3.2-  0.5-) 

001130 474  0.3-  0.7+    001208 859 (3.9+  2.1-)   010114 349  0.9+  0.9+  

001130 474  0.3-  0.0     001209 347  0.9+  2.0+    010114 349 (0.7-  2.3+) 

001130 474  0.8-  0.4+    001209 349  1.6-  0.1+    010114 349  0.2-  0.2+  

001202 467 (1.1+  2.3-)   001209 349  1.0-  0.5-    010114 349  0.3-  1.1+  

001202 413  1.4-  0.4+    001209 349  0.8-  0.7-    010114 349  0.4-  0.6-  

001202 413  1.6-  0.4+    001209 349  0.7-  1.9-    010118 349  0.7-  1.8+  

001202 428  0.0   0.3-    001209 349  0.9-  0.1-    010118 349  0.3+  0.2+  

001202 428  0.2-  0.3+    001209 351  1.5-  1.3+    010118 349  0.6-  0.2-  

001202 428  0.1+  0.1-    001209 351  1.2-  0.5+    010123 349  0.7-  0.1-  

001202 428  0.2-  0.3-    001209 351  1.7-  1.1+    010123 349  0.1+  0.9+  

001202 860  0.6-  0.2-    001209 300  0.6-  0.6-    

001202 860  1.3-  0.2+    001209 300  0.7-  0.0     



NAKANO

         **** Don't distribute anyone except personal use only ****

                (C) Copyright 2001 OAA/ComputingSection

write mail from CFAD0::NAKANO on 2001-03-04 02:02:19(JST).

 





    C/2000 WM1 (LINEAR) 

Epoch 2002 Jan. 6.0 TT = JDT 2452280.5  

T 2002 Jan. 22.68567 TT                                 Nakano

q   0.5554190            (2000.0)            P               Q

z  -0.0005054      Peri.  276.76849     -0.31488923     -0.49781259

 +/-0.0000385      Node   237.89617     +0.43043026     -0.83372680

e   1.0002807      Incl.   72.54966     -0.84591640     -0.23891891

From 122 observations 2000 Nov. 16-2001 Feb. 25, mean residual 0".60.

Residuals in seconds of arc 

2000/                     001219 704  0.3-  0.3-    001230 941 (2.1+  0.2-) 

001116 704  0.2+  0.3+    001220 696  0.4-  0.1-    001230 941  0.1+  0.7-  

001116 704  0.7+  0.1+    001220 046  0.0   0.1-    001231 461  0.3-  0.6+  

001116 704  0.8+  0.0     001220 046  0.9+  0.5+    2001/                   

001116 704  0.1-  1.3-    001220 046  0.4-  0.2-    010106 341  0.0   0.0   

001116 704  0.4+  0.5+    001220 046  0.4+  0.5-    010106 341  0.1-  0.1+  

001116 704  1.0-  0.7-    001220 046  0.5+  0.2+    010106 341  0.5-  0.1-  

001116 704  0.4-  0.1+    001221 704  0.2-  0.3-    010106 941  0.0   0.5-  

001116 704  1.2-  1.0-    001221 704  0.0   0.2+    010113 118  0.0   0.3-  

001116 704  0.9-  0.3-    001221 704  0.3+  0.7-    010113 118  1.5+  0.4+  

001118 704  0.5+  0.4+    001221 704  0.3+  1.0+    010113 118  0.0   0.2+  

001118 704  0.1-  0.4+    001221 704  0.4+  0.6-    010114 118  0.2-  0.1+  

001118 704  0.2-  0.5+    001222 341  0.1+  0.3+    010114 118  0.5-  0.2-  

001216 704  1.6+  0.3+    001222 341  0.2+  0.2+    010115 372  0.0   0.3-  

001216 704  1.7+  0.5+    001222 402  0.4+  1.0-    010116 372  0.1-  0.8+  

001216 704  1.6+  0.1+    001222 402  0.3+  0.1+    010120 941 (3.9+  1.1-) 

001217 704  0.0   0.1+    001222 341  0.2+  0.2+    010121 349 (1.1-  2.1-) 

001217 854  0.6+  0.0     001222 402  1.1+  0.1-    010121 349  0.7-  0.8-  

001217 704  0.6-  0.1-    001222 360  0.2-  0.0     010121 349  1.6-  0.7-  

001217 704  0.3-  0.0     001222 360  0.0   0.2+    010124 341  0.3-  0.4-  

001217 704  0.1-  0.1+    001223 704  0.1+  0.3-    010124 341  0.1-  0.2-  

001217 854  1.3-  0.1-    001223 704  0.3-  0.1-    010124 341  0.3-  0.0   

001217 704  0.6-  0.6+    001223 704  0.3+  0.2-    010203 170  1.3+  1.9-  

001217 704  0.4-  0.3+    001223 704  0.1+  0.1-    010216 201  0.1-  0.6+  

001217 854  1.1-  0.0     001223 349  1.4-  1.6+    010216 201  0.1-  0.2+  

001217 704  0.4+  0.1+    001223 349  1.2-  0.2-    010217 620  0.3-  0.4-  

001217 704  0.7-  0.2+    001223 349  1.5-  0.0     010217 620  0.0   0.1+  

001217 704  0.6-  0.7+    001226 372  0.6+  1.1+    010217 620  0.0   0.6+  

001217 704  0.1-  0.3-    001227 897  0.3+  0.2-    010218 201  0.4-  0.2+  

001217 704  0.2-  0.9+    001227 897  0.2+  1.2-    010218 201  1.4-  0.9-  

001217 704  0.1-  0.9+    001227 897  0.8-  0.1+    010218 201  0.5+  0.3+  

001217 704  0.2+  0.5-    001227 170  1.4+  1.8-    010219 360  0.4-  0.4-  

001217 704  0.6-  0.3-    001229 372  0.3+  0.9+    010219 360  0.2-  0.2-  

001217 704  0.2-  0.4+    001229 360  0.2-  0.1+    010220 620  0.1+  0.3+  

001217 557  0.0   0.1-    001229 360  0.1-  0.1+    010220 620  0.0   0.1-  

001217 557  0.0   0.1+    001229 372  0.8+  0.5-    010220 620  0.4-  0.0   

001217 557  0.1+  0.2+    001229 897  0.1-  1.2-    010220 620  0.4-  0.0   

001217 611  0.4+  0.1+    001229 897  0.1+  0.3+    010225 349  1.3+  0.4+  

001217 611  0.5+  0.2-    001229 897  1.0-  0.7-    010225 349  0.0   0.5+  

001217 611  0.3+  0.8+    001229 402  0.4+  0.7+    010225 349  1.0+  0.5+  

001219 704  0.7+  0.4+    001229 402  0.2+  0.3+    010225 349  0.2+  0.7+  

001219 704  0.7-  0.1+    001229 402  1.1+  0.4+    

001219 704  0.0   0.7+    001230 941  0.0   1.1-    



NAKANO

         **** Don't distribute anyone except personal use only ****

                (C) Copyright 2001 OAA/ComputingSection

write mail from CFAD0::NAKANO on 2001-03-04 02:02:19(JST).

 



    C/2000 W1 (Utsunomiya-Jones) 

T 2000 Dec. 26.55927 TT                                 Nakano

q   0.3211812            (2000.0)            P               Q

                   Peri.   51.50891     +0.74897195     -0.65956334

                   Node    10.76598     -0.66259808     -0.74584966

